{"data":{"norad_id":52092,"intl_designator":"2022-029E","name":"STARLINK-3716","alt_names":[],"object_type":"PAYLOAD","status":"ACTIVE","operator":null,"country":"US","launch_date":"2022-03-19","launch_site_code":"AFETR","launch_vehicle":null,"mission":null,"orbit_class":"UNKNOWN","rcs_meters":null,"size_class":null,"mass_kg":null,"dimensions":null,"purposes":["comms"],"wikipedia_slug":null,"has_3d_model":false,"image_url":null,"decayed_at":null,"tle_current":{"epoch":"2026-05-25T04:35:56.071680Z","epoch_age_seconds":55003,"freshness":"FRESH","line1":"1 52092U 22029E   26145.19162120 -.00003720  00000+0 -21577-3 0  9991","line2":"2 52092  53.2128 105.6868 0001235  65.4264 294.6856 15.08840419232202","mean_motion":15.08840419,"eccentricity":0.0001235,"inclination_deg":53.2128,"raan_deg":105.6868,"arg_perigee_deg":65.4264,"mean_anomaly_deg":294.6856,"bstar":-0.00021577,"rev_number":23220,"period_min":95.437528175072,"perigee_km":538.88775017915,"apogee_km":540.59646631889,"semimajor_km":6917.879108249,"source":"CELESTRAK","updated_at":"2026-05-25T13:38:17.000601Z"}}}